When you browse on this site, cookies collect data to enhance your experience and personalize the content and advertising you see.
Visit our Privacy Policy to learn more. By continuing to use the site, you agree to this use of cookies and data.
  • In Österreich
  • Länderverzeichnis
  • Für 7 Tage
  • Wassertemperatur
  • Satellitenkarten
  • Wetterkarte
  • News
  • Widgets
  • user-avatar
    Anmelden

    Stündliche Wetter Rivne

    Heute, 20 Mai, Montag

    Zeit Temperatur Niederschläge Wind Luftdruck Luftfeuchtigkeit
    00:00 +17°C° 0 mm 3 m/S 757 mmHg 92%
    01:00 +17°C° 0 mm 3 m/S 757 mmHg 94%
    02:00 +17°C° 0 mm 4 m/S 757 mmHg 95%
    03:00 +17°C° 0.1 mm 4 m/S 757 mmHg 95%
    04:00 +17°C° 0.1 mm 4 m/S 758 mmHg 95%
    05:00 +17°C° 0.1 mm 4 m/S 758 mmHg 95%
    06:00 +17°C° 0.1 mm 5 m/S 758 mmHg 89%
    07:00 +20°C° 0.1 mm 5 m/S 759 mmHg 83%
    08:00 +22°C° 0 mm 5 m/S 759 mmHg 74%
    09:00 +23°C° 0 mm 5 m/S 759 mmHg 70%
    10:00 +25°C° 0 mm 5 m/S 759 mmHg 65%
    11:00 +26°C° 0 mm 6 m/S 760 mmHg 61%
    12:00 +26°C° 0 mm 6 m/S 760 mmHg 57%
    13:00 +26°C° 0 mm 6 m/S 759 mmHg 54%
    14:00 +26°C° 0 mm 6 m/S 759 mmHg 46%
    15:00 +26°C° 0 mm 6 m/S 759 mmHg 48%
    16:00 +24°C° 0 mm 6 m/S 759 mmHg 50%
    17:00 +23°C° 0 mm 6 m/S 759 mmHg 52%
    18:00 +21°C° 0 mm 5 m/S 759 mmHg 58%
    19:00 +20°C° 0 mm 5 m/S 759 mmHg 64%
    20:00 +18°C° 0 mm 4 m/S 759 mmHg 69%
    21:00 +18°C° 0 mm 4 m/S 759 mmHg 71%
    22:00 +18°C° 0 mm 4 m/S 759 mmHg 72%
    23:00 +18°C° 0 mm 4 m/S 759 mmHg 73%

    Morgen, 21 Mai, Dienstag

    Zeit Temperatur Niederschläge Wind Luftdruck Luftfeuchtigkeit
    00:00 +18°C° 0 mm 4 m/S 759 mmHg 75%
    01:00 +18°C° 0 mm 4 m/S 759 mmHg 78%
    02:00 +18°C° 0 mm 4 m/S 759 mmHg 80%
    03:00 +17°C° 0 mm 5 m/S 759 mmHg 81%
    04:00 +17°C° 0 mm 5 m/S 759 mmHg 82%
    05:00 +17°C° 0 mm 5 m/S 759 mmHg 83%
    06:00 +19°C° 0 mm 5 m/S 759 mmHg 79%
    07:00 +20°C° 0 mm 6 m/S 760 mmHg 75%
    08:00 +21°C° 0 mm 6 m/S 760 mmHg 71%
    09:00 +21°C° 0 mm 6 m/S 760 mmHg 73%
    10:00 +20°C° 0 mm 6 m/S 760 mmHg 74%
    11:00 +20°C° 0 mm 6 m/S 760 mmHg 75%
    12:00 +21°C° 0 mm 6 m/S 759 mmHg 71%
    13:00 +22°C° 0 mm 6 m/S 759 mmHg 67%
    14:00 +23°C° 0 mm 6 m/S 759 mmHg 63%
    15:00 +22°C° 0 mm 6 m/S 759 mmHg 64%
    16:00 +22°C° 0 mm 6 m/S 759 mmHg 65%
    17:00 +22°C° 0 mm 6 m/S 759 mmHg 65%
    18:00 +20°C° 0.1 mm 6 m/S 759 mmHg 71%
    19:00 +19°C° 0.1 mm 5 m/S 759 mmHg 77%
    20:00 +17°C° 0.1 mm 4 m/S 758 mmHg 83%
    21:00 +17°C° 0.2 mm 4 m/S 758 mmHg 85%
    22:00 +17°C° 0.2 mm 4 m/S 758 mmHg 86%
    23:00 +15°C° 0.2 mm 4 m/S 758 mmHg 88%

    übermorgen, 22 Mai, Mittwoch

    Zeit Temperatur Niederschläge Wind Luftdruck Luftfeuchtigkeit
    00:00 +16°C° 0.2 mm 3 m/S 758 mmHg 88%
    01:00 +16°C° 0.2 mm 3 m/S 758 mmHg 87%
    02:00 +16°C° 0.2 mm 2 m/S 757 mmHg 87%
    03:00 +16°C° 1 mm 2 m/S 757 mmHg 88%
    04:00 +16°C° 1 mm 1 m/S 757 mmHg 89%
    05:00 +16°C° 1 mm 1 m/S 757 mmHg 90%
    06:00 +18°C° 2.1 mm 1 m/S 757 mmHg 90%
    07:00 +18°C° 2.1 mm 1 m/S 757 mmHg 91%
    08:00 +18°C° 2.1 mm 1 m/S 757 mmHg 91%
    09:00 +18°C° 2.4 mm 1 m/S 757 mmHg 89%
    10:00 +18°C° 2.4 mm 1 m/S 757 mmHg 87%
    11:00 +19°C° 2.4 mm 1 m/S 757 mmHg 85%
    12:00 +20°C° 0 mm 1 m/S 757 mmHg 79%
    13:00 +20°C° 0 mm 2 m/S 757 mmHg 74%
    14:00 +20°C° 0 mm 2 m/S 757 mmHg 68%
    15:00 +20°C° 0.4 mm 2 m/S 757 mmHg 70%
    16:00 +20°C° 0.4 mm 2 m/S 756 mmHg 71%
    17:00 +20°C° 0.4 mm 2 m/S 756 mmHg 72%
    18:00 +19°C° 0.8 mm 2 m/S 756 mmHg 76%
    19:00 +18°C° 0.8 mm 2 m/S 757 mmHg 81%
    20:00 +17°C° 0.8 mm 2 m/S 757 mmHg 85%
    21:00 +17°C° 0 mm 2 m/S 757 mmHg 84%
    22:00 +17°C° 0 mm 3 m/S 757 mmHg 83%
    23:00 +16°C° 0 mm 3 m/S 757 mmHg 82%

    23 Mai, Donnerstag

    Zeit Temperatur Niederschläge Wind Luftdruck Luftfeuchtigkeit
    00:00 +16°C° 0 mm 3 m/S 757 mmHg 83%
    01:00 +14°C° 0 mm 3 m/S 757 mmHg 84%
    02:00 +14°C° 0 mm 3 m/S 757 mmHg 84%
    03:00 +14°C° 0 mm 3 m/S 757 mmHg 87%
    04:00 +14°C° 0 mm 3 m/S 757 mmHg 89%
    05:00 +14°C° 0 mm 3 m/S 757 mmHg 91%
    06:00 +17°C° 0 mm 3 m/S 757 mmHg 83%
    07:00 +19°C° 0 mm 3 m/S 757 mmHg 76%
    08:00 +21°C° 0 mm 3 m/S 757 mmHg 68%
    09:00 +23°C° 0 mm 4 m/S 757 mmHg 60%
    10:00 +26°C° 0 mm 4 m/S 757 mmHg 52%
    11:00 +27°C° 0 mm 4 m/S 757 mmHg 44%
    12:00 +27°C° 0 mm 4 m/S 757 mmHg 44%
    13:00 +27°C° 0 mm 5 m/S 757 mmHg 43%
    14:00 +28°C° 0 mm 5 m/S 757 mmHg 43%
    15:00 +27°C° 0 mm 5 m/S 757 mmHg 46%
    16:00 +26°C° 0 mm 5 m/S 757 mmHg 49%
    17:00 +25°C° 0 mm 5 m/S 757 mmHg 53%
    18:00 +23°C° 0 mm 4 m/S 757 mmHg 59%
    19:00 +21°C° 0 mm 4 m/S 757 mmHg 65%
    20:00 +19°C° 0 mm 3 m/S 757 mmHg 71%
    21:00 +18°C° 0 mm 3 m/S 757 mmHg 75%
    22:00 +18°C° 0 mm 3 m/S 757 mmHg 79%
    23:00 +17°C° 0 mm 3 m/S 757 mmHg 83%

    24 Mai, Freitag

    Zeit Temperatur Niederschläge Wind Luftdruck Luftfeuchtigkeit
    00:00 +17°C° 0 mm 3 m/S 757 mmHg 85%
    01:00 +16°C° 0 mm 3 m/S 757 mmHg 87%
    02:00 +16°C° 0 mm 2 m/S 757 mmHg 89%
    03:00 +16°C° 0 mm 2 m/S 757 mmHg 89%
    04:00 +16°C° 0 mm 2 m/S 757 mmHg 88%
    05:00 +16°C° 0 mm 2 m/S 757 mmHg 88%
    06:00 +18°C° 0 mm 2 m/S 757 mmHg 80%
    07:00 +20°C° 0 mm 2 m/S 757 mmHg 72%
    08:00 +21°C° 0 mm 2 m/S 757 mmHg 64%
    09:00 +22°C° 0 mm 3 m/S 757 mmHg 60%
    10:00 +24°C° 0 mm 3 m/S 757 mmHg 55%
    11:00 +25°C° 0 mm 4 m/S 757 mmHg 51%
    12:00 +26°C° 0 mm 4 m/S 756 mmHg 49%
    13:00 +26°C° 0 mm 5 m/S 756 mmHg 48%
    14:00 +26°C° 0 mm 5 m/S 756 mmHg 46%
    15:00 +26°C° 0 mm 5 m/S 755 mmHg 49%
    16:00 +25°C° 0 mm 5 m/S 755 mmHg 51%
    17:00 +23°C° 0 mm 5 m/S 755 mmHg 53%
    18:00 +22°C° 0 mm 5 m/S 755 mmHg 58%
    19:00 +21°C° 0 mm 4 m/S 755 mmHg 63%
    20:00 +19°C° 0 mm 4 m/S 754 mmHg 67%
    21:00 +19°C° 0 mm 4 m/S 754 mmHg 68%
    22:00 +18°C° 0 mm 4 m/S 754 mmHg 69%
    23:00 +18°C° 0 mm 4 m/S 754 mmHg 69%

    25 Mai, Samstag

    Zeit Temperatur Niederschläge Wind Luftdruck Luftfeuchtigkeit
    00:00 +18°C° 0 mm 4 m/S 753 mmHg 69%
    01:00 +18°C° 0 mm 4 m/S 753 mmHg 70%
    02:00 +17°C° 0 mm 5 m/S 752 mmHg 70%
    03:00 +18°C° 0.2 mm 4 m/S 752 mmHg 76%
    04:00 +17°C° 0.2 mm 4 m/S 752 mmHg 81%
    05:00 +17°C° 0.2 mm 4 m/S 752 mmHg 86%
    06:00 +18°C° 0.3 mm 4 m/S 752 mmHg 82%
    07:00 +19°C° 0.3 mm 4 m/S 752 mmHg 77%
    08:00 +20°C° 0.3 mm 4 m/S 752 mmHg 72%
    09:00 +20°C° 1 mm 3 m/S 751 mmHg 74%
    10:00 +20°C° 1 mm 3 m/S 751 mmHg 76%
    11:00 +20°C° 1 mm 2 m/S 751 mmHg 79%
    12:00 +20°C° 1 mm 3 m/S 751 mmHg 79%
    13:00 +20°C° 1 mm 3 m/S 751 mmHg 80%
    14:00 +20°C° 1 mm 3 m/S 751 mmHg 80%
    15:00 +20°C° 0.1 mm 3 m/S 751 mmHg 77%
    16:00 +21°C° 0.1 mm 3 m/S 751 mmHg 75%
    17:00 +21°C° 0.1 mm 4 m/S 751 mmHg 72%
    18:00 +20°C° 0 mm 4 m/S 751 mmHg 74%
    19:00 +19°C° 0 mm 4 m/S 752 mmHg 77%
    20:00 +17°C° 0 mm 5 m/S 752 mmHg 80%
    21:00 +17°C° 0 mm 5 m/S 752 mmHg 80%
    22:00 +17°C° 0 mm 6 m/S 752 mmHg 81%
    23:00 +17°C° 0 mm 7 m/S 752 mmHg 82%
    Mehr zeigen